Time,TemperatureF,DewpointF,PressureIn,WindDirection,WindDirectionDegrees,WindSpeedMPH,WindSpeedGustMPH,Humidity,HourlyPrecipIn,Conditions,Clouds,dailyrainin,SoftwareType,DateUTC
2013-06-01 00:00:00,74.3,65.5,29.93,WNW,296,0.0,0.0,74,0.00,,,0.00,Wunderground v.1.13,2013-06-01 04:00:00,
2013-06-01 00:10:00,71.9,65.0,29.94,WNW,294,2.0,2.0,79,0.00,,,0.00,Wunderground v.1.13,2013-06-01 04:10:00,
2013-06-01 00:20:00,71.5,63.9,29.94,WNW,294,0.0,1.0,77,0.00,,,0.00,Wunderground v.1.13,2013-06-01 04:20:00,
2013-06-01 00:30:00,72.5,63.7,29.94,WNW,294,0.0,1.0,74,0.00,,,0.00,Wunderground v.1.13,2013-06-01 04:30:00,
2013-06-01 00:40:00,73.4,64.2,29.94,WNW,294,1.0,1.0,73,0.00,,,0.00,Wunderground v.1.13,2013-06-01 04:40:00,
2013-06-01 00:50:00,73.6,64.0,29.94,WNW,294,0.0,0.0,72,0.00,,,0.00,Wunderground v.1.13,2013-06-01 04:50:00,
2013-06-01 01:00:00,73.6,64.4,29.94,WNW,294,0.0,0.0,73,0.00,,,0.00,Wunderground v.1.13,2013-06-01 05:00:00,
2013-06-01 01:10:00,73.2,63.6,29.95,WNW,294,0.0,0.0,72,0.00,,,0.00,Wunderground v.1.13,2013-06-01 05:10:00,
2013-06-01 01:20:00,72.6,63.8,29.95,WNW,294,0.0,0.0,74,0.00,,,0.00,Wunderground v.1.13,2013-06-01 05:20:00,
2013-06-01 01:30:00,71.9,64.3,29.95,WNW,294,0.0,0.0,77,0.00,,,0.00,Wunderground v.1.13,2013-06-01 05:30:00,
2013-06-01 01:40:00,71.1,64.3,29.95,WNW,294,0.0,0.0,79,0.00,,,0.00,Wunderground v.1.13,2013-06-01 05:40:00,
2013-06-01 01:50:00,70.9,64.8,29.95,WNW,294,0.0,0.0,81,0.00,,,0.00,Wunderground v.1.13,2013-06-01 05:50:00,
2013-06-01 02:00:00,70.7,64.6,29.95,WNW,294,0.0,0.0,81,0.00,,,0.00,Wunderground v.1.13,2013-06-01 06:00:00,
2013-06-01 02:10:00,70.6,64.8,29.95,WNW,294,0.0,0.0,82,0.00,,,0.00,Wunderground v.1.13,2013-06-01 06:10:00,
2013-06-01 02:20:00,70.4,64.6,29.95,WNW,294,0.0,0.0,82,0.00,,,0.00,Wunderground v.1.13,2013-06-01 06:20:00,
2013-06-01 02:23:00,70.5,64.7,29.95,WNW,292,0.0,1.0,82,0.00,,,-99.99,WeatherLink 6.0.2,2013-06-01 06:23:00,
2013-06-01 02:30:00,70.4,65.0,29.95,WNW,294,0.0,0.0,83,0.00,,,0.00,Wunderground v.1.13,2013-06-01 06:30:00,
2013-06-01 02:40:00,70.2,65.1,29.95,WNW,294,0.0,0.0,84,0.00,,,0.00,Wunderground v.1.13,2013-06-01 06:40:00,
2013-06-01 02:50:00,70.1,65.0,29.95,WNW,294,0.0,0.0,84,0.00,,,0.00,Wunderground v.1.13,2013-06-01 06:50:00,
2013-06-01 03:00:00,69.9,64.8,29.95,WNW,294,0.0,0.0,84,0.00,,,0.00,Wunderground v.1.13,2013-06-01 07:00:00,
2013-06-01 03:10:00,69.9,64.8,29.95,WNW,294,0.0,0.0,84,0.00,,,0.00,Wunderground v.1.13,2013-06-01 07:10:00,
2013-06-01 03:20:00,69.9,65.2,29.95,WNW,294,0.0,0.0,85,0.00,,,0.00,Wunderground v.1.13,2013-06-01 07:20:00,
2013-06-01 03:30:00,69.9,65.2,29.94,WNW,294,0.0,0.0,85,0.00,,,0.00,Wunderground v.1.13,2013-06-01 07:30:00,
2013-06-01 03:40:00,69.8,65.1,29.94,WNW,294,0.0,0.0,85,0.00,,,0.00,Wunderground v.1.13,2013-06-01 07:40:00,
2013-06-01 03:50:00,70.0,65.3,29.93,WNW,294,0.0,0.0,85,0.00,,,0.00,Wunderground v.1.13,2013-06-01 07:50:00,
2013-06-01 04:00:00,70.0,65.3,29.94,WNW,294,0.0,0.0,85,0.00,,,0.00,Wunderground v.1.13,2013-06-01 08:00:00,
2013-06-01 04:10:00,69.8,65.1,29.93,WNW,294,0.0,0.0,85,0.00,,,0.00,Wunderground v.1.13,2013-06-01 08:10:00,
2013-06-01 04:20:00,69.4,64.7,29.93,WNW,294,0.0,0.0,85,0.00,,,0.00,Wunderground v.1.13,2013-06-01 08:20:00,
2013-06-01 04:30:00,69.1,65.1,29.93,WNW,294,0.0,0.0,87,0.00,,,0.00,Wunderground v.1.13,2013-06-01 08:30:00,
2013-06-01 04:40:00,68.8,64.8,29.93,WNW,294,0.0,0.0,87,0.00,,,0.00,Wunderground v.1.13,2013-06-01 08:40:00,
2013-06-01 04:50:00,68.6,64.6,29.93,WNW,294,0.0,0.0,87,0.00,,,0.00,Wunderground v.1.13,2013-06-01 08:50:00,
2013-06-01 05:00:00,68.1,64.4,29.93,WNW,294,0.0,0.0,88,0.00,,,0.00,Wunderground v.1.13,2013-06-01 09:00:00,
2013-06-01 05:10:00,67.9,64.2,29.93,WNW,294,0.0,0.0,88,0.00,,,0.00,Wunderground v.1.13,2013-06-01 09:10:00,
2013-06-01 05:20:00,67.7,63.7,29.93,WNW,294,0.0,0.0,87,0.00,,,0.00,Wunderground v.1.13,2013-06-01 09:20:00,
2013-06-01 05:30:00,67.5,64.1,29.93,WNW,294,0.0,0.0,89,0.00,,,0.00,Wunderground v.1.13,2013-06-01 09:30:00,
2013-06-01 05:40:00,67.3,63.6,29.93,WNW,294,0.0,0.0,88,0.00,,,0.00,Wunderground v.1.13,2013-06-01 09:40:00,
2013-06-01 05:50:00,67.1,63.4,29.93,WNW,294,0.0,0.0,88,0.00,,,0.00,Wunderground v.1.13,2013-06-01 09:50:00,
2013-06-01 06:00:00,66.8,63.5,29.93,WNW,294,0.0,0.0,89,0.00,,,0.00,Wunderground v.1.13,2013-06-01 10:00:00,
2013-06-01 06:10:00,66.5,63.5,29.94,WNW,294,0.0,0.0,90,0.00,,,0.00,Wunderground v.1.13,2013-06-01 10:10:00,
2013-06-01 06:20:00,66.2,63.5,29.94,WNW,294,0.0,0.0,91,0.00,,,0.00,Wunderground v.1.13,2013-06-01 10:20:00,
2013-06-01 06:30:00,66.0,63.3,29.95,WNW,294,0.0,0.0,91,0.00,,,0.00,Wunderground v.1.13,2013-06-01 10:30:00,
2013-06-01 06:40:00,66.0,63.6,29.94,WNW,294,0.0,0.0,92,0.00,,,0.00,Wunderground v.1.13,2013-06-01 10:40:00,
2013-06-01 06:50:00,65.8,63.4,29.95,WNW,294,0.0,0.0,92,0.00,,,0.00,Wunderground v.1.13,2013-06-01 10:50:00,
2013-06-01 07:00:00,65.7,63.3,29.95,WNW,294,0.0,0.0,92,0.00,,,0.00,Wunderground v.1.13,2013-06-01 11:00:00,
2013-06-01 07:10:00,65.7,63.6,29.95,WNW,294,0.0,0.0,93,0.00,,,0.00,Wunderground v.1.13,2013-06-01 11:10:00,
2013-06-01 07:20:00,66.0,64.2,29.95,WNW,294,0.0,0.0,94,0.00,,,0.00,Wunderground v.1.13,2013-06-01 11:20:00,
2013-06-01 07:30:00,66.3,64.5,29.95,WNW,294,0.0,0.0,94,0.00,,,0.00,Wunderground v.1.13,2013-06-01 11:30:00,
2013-06-01 07:40:00,66.6,64.8,29.95,WNW,294,0.0,0.0,94,0.00,,,0.00,Wunderground v.1.13,2013-06-01 11:40:00,
2013-06-01 07:50:00,67.0,64.9,29.95,WNW,294,0.0,0.0,93,0.00,,,0.00,Wunderground v.1.13,2013-06-01 11:50:00,
2013-06-01 08:00:00,67.5,65.4,29.96,WNW,294,0.0,0.0,93,0.00,,,0.00,Wunderground v.1.13,2013-06-01 12:00:00,
2013-06-01 08:10:00,68.1,65.7,29.96,WNW,294,0.0,0.0,92,0.00,,,0.00,Wunderground v.1.13,2013-06-01 12:10:00,
2013-06-01 08:20:00,68.8,66.4,29.96,WNW,294,0.0,0.0,92,0.00,,,0.00,Wunderground v.1.13,2013-06-01 12:20:00,
2013-06-01 08:30:00,69.7,67.0,29.95,WNW,294,0.0,0.0,91,0.00,,,0.00,Wunderground v.1.13,2013-06-01 12:30:00,
2013-06-01 08:40:00,70.8,67.7,29.95,WNW,294,0.0,0.0,90,0.00,,,0.00,Wunderground v.1.13,2013-06-01 12:40:00,
2013-06-01 08:50:00,72.6,67.1,29.95,WNW,294,0.0,0.0,83,0.00,,,0.00,Wunderground v.1.13,2013-06-01 12:50:00,
2013-06-01 09:00:00,74.3,67.4,29.95,WNW,294,0.0,0.0,79,0.00,,,0.00,Wunderground v.1.13,2013-06-01 13:00:00,
2013-06-01 09:10:00,75.4,67.3,29.95,WNW,294,0.0,1.0,76,0.00,,,0.00,Wunderground v.1.13,2013-06-01 13:10:00,
2013-06-01 09:20:00,76.2,65.7,29.95,WNW,294,0.0,1.0,70,0.00,,,0.00,Wunderground v.1.13,2013-06-01 13:20:00,
2013-06-01 09:30:00,77.1,67.0,29.94,ENE,63,0.0,0.0,71,0.00,,,0.00,Wunderground v.1.13,2013-06-01 13:30:00,
2013-06-01 09:40:00,77.9,65.6,29.94,ENE,61,0.0,0.0,66,0.00,,,0.00,Wunderground v.1.13,2013-06-01 13:40:00,
2013-06-01 09:50:00,78.4,64.3,29.93,SSE,151,0.0,0.0,62,0.00,,,0.00,Wunderground v.1.13,2013-06-01 13:50:00,
2013-06-01 10:00:00,79.1,65.0,29.93,SSE,151,0.0,1.0,62,0.00,,,0.00,Wunderground v.1.13,2013-06-01 14:00:00,
2013-06-01 10:10:00,79.7,64.6,29.93,SSE,162,1.0,1.0,60,0.00,,,0.00,Wunderground v.1.13,2013-06-01 14:10:00,
2013-06-01 10:20:00,80.3,64.2,29.93,South,171,1.0,1.0,58,0.00,,,0.00,Wunderground v.1.13,2013-06-01 14:20:00,
2013-06-01 10:30:00,80.8,63.6,29.93,South,175,1.0,1.0,56,0.00,,,0.00,Wunderground v.1.13,2013-06-01 14:30:00,
2013-06-01 10:40:00,81.2,64.5,29.93,SE,143,1.0,1.0,57,0.00,,,0.00,Wunderground v.1.13,2013-06-01 14:40:00,
2013-06-01 10:50:00,81.7,64.5,29.92,SE,143,0.0,0.0,56,0.00,,,0.00,Wunderground v.1.13,2013-06-01 14:50:00,
2013-06-01 11:00:00,81.9,64.1,29.92,SSE,147,1.0,1.0,55,0.00,,,0.00,Wunderground v.1.13,2013-06-01 15:00:00,
2013-06-01 11:10:00,82.2,64.4,29.92,NW,315,1.0,1.0,55,0.00,,,0.00,Wunderground v.1.13,2013-06-01 15:10:00,
2013-06-01 11:20:00,82.5,63.1,29.93,SSE,163,1.0,1.0,52,0.00,,,0.00,Wunderground v.1.13,2013-06-01 15:20:00,
2013-06-01 11:30:00,82.7,63.8,29.93,SSW,202,1.0,1.0,53,0.00,,,0.00,Wunderground v.1.13,2013-06-01 15:30:00,
2013-06-01 11:40:00,83.1,64.2,29.92,SSW,209,1.0,1.0,53,0.00,,,0.00,Wunderground v.1.13,2013-06-01 15:40:00,
2013-06-01 11:50:00,83.4,63.9,29.92,SSE,166,1.0,1.0,52,0.00,,,0.00,Wunderground v.1.13,2013-06-01 15:50:00,
2013-06-01 12:00:00,84.1,66.2,29.91,SSW,213,1.0,1.0,55,0.00,,,0.00,Wunderground v.1.13,2013-06-01 16:00:00,
2013-06-01 12:10:00,85.1,66.0,29.91,WNW,286,1.0,1.0,53,0.00,,,0.00,Wunderground v.1.13,2013-06-01 16:10:00,
2013-06-01 12:20:00,85.2,64.5,29.90,SE,134,2.0,2.0,50,0.00,,,0.00,Wunderground v.1.13,2013-06-01 16:20:00,
2013-06-01 12:30:00,85.6,65.4,29.91,SW,236,1.0,1.0,51,0.00,,,0.00,Wunderground v.1.13,2013-06-01 16:30:00,
2013-06-01 12:40:00,85.3,64.6,29.91,SSW,211,2.0,2.0,50,0.00,,,0.00,Wunderground v.1.13,2013-06-01 16:40:00,
2013-06-01 12:50:00,85.2,65.0,29.90,WSW,244,1.0,2.0,51,0.00,,,0.00,Wunderground v.1.13,2013-06-01 16:50:00,
2013-06-01 13:00:00,86.0,65.2,29.90,West,281,1.0,3.0,50,0.00,,,0.00,Wunderground v.1.13,2013-06-01 17:00:00,
2013-06-01 13:10:00,86.6,68.0,29.90,WNW,284,1.0,1.0,54,0.00,,,0.00,Wunderground v.1.13,2013-06-01 17:10:00,
2013-06-01 13:20:00,87.3,67.0,29.90,NW,306,1.0,1.0,51,0.00,,,0.00,Wunderground v.1.13,2013-06-01 17:20:00,
2013-06-01 13:30:00,87.0,64.9,29.90,WNW,300,1.0,1.0,48,0.00,,,0.00,Wunderground v.1.13,2013-06-01 17:30:00,
2013-06-01 13:40:00,87.0,65.5,29.89,West,273,1.0,1.0,49,0.00,,,0.00,Wunderground v.1.13,2013-06-01 17:40:00,
2013-06-01 13:50:00,87.4,67.1,29.89,SW,217,0.0,2.0,51,0.00,,,0.00,Wunderground v.1.13,2013-06-01 17:50:00,
2013-06-01 14:00:00,87.5,67.1,29.89,West,261,1.0,2.0,51,0.00,,,0.00,Wunderground v.1.13,2013-06-01 18:00:00,
2013-06-01 14:10:00,86.8,66.5,29.88,NNW,341,1.0,1.0,51,0.00,,,0.00,Wunderground v.1.13,2013-06-01 18:10:00,
2013-06-01 14:20:00,86.2,65.9,29.88,WNW,300,2.0,2.0,51,0.00,,,0.00,Wunderground v.1.13,2013-06-01 18:20:00,
2013-06-01 14:30:00,83.9,66.5,29.88,WNW,302,2.0,2.0,56,0.00,,,0.00,Wunderground v.1.13,2013-06-01 18:30:00,
2013-06-01 14:40:00,84.3,68.4,29.88,WNW,298,1.0,1.0,59,0.00,,,0.00,Wunderground v.1.13,2013-06-01 18:40:00,
2013-06-01 14:50:00,84.9,69.0,29.88,WNW,294,2.0,2.0,59,0.00,,,0.00,Wunderground v.1.13,2013-06-01 18:50:00,
2013-06-01 15:00:00,84.8,68.4,29.87,WNW,295,2.0,2.0,58,0.00,,,0.00,Wunderground v.1.13,2013-06-01 19:00:00,
2013-06-01 15:10:00,85.2,68.8,29.87,NW,308,2.0,3.0,58,0.00,,,0.00,Wunderground v.1.13,2013-06-01 19:10:00,
2013-06-01 15:20:00,85.6,67.0,29.87,WNW,286,2.0,2.0,54,0.00,,,0.00,Wunderground v.1.13,2013-06-01 19:20:00,
2013-06-01 15:30:00,85.9,68.9,29.86,WNW,300,2.0,2.0,57,0.00,,,0.00,Wunderground v.1.13,2013-06-01 19:30:00,
2013-06-01 15:40:00,85.7,69.2,29.86,WNW,290,1.0,1.0,58,0.00,,,0.00,Wunderground v.1.13,2013-06-01 19:40:00,
2013-06-01 15:50:00,85.1,67.6,29.86,WNW,294,1.0,1.0,56,0.00,,,0.00,Wunderground v.1.13,2013-06-01 19:50:00,
2013-06-01 16:00:00,84.5,68.1,29.86,WNW,292,2.0,2.0,58,0.00,,,0.00,Wunderground v.1.13,2013-06-01 20:00:00,
2013-06-01 16:10:00,84.4,68.5,29.85,WNW,292,1.0,1.0,59,0.00,,,0.00,Wunderground v.1.13,2013-06-01 20:10:00,
2013-06-01 16:20:00,84.5,68.6,29.85,WNW,289,1.0,2.0,59,0.00,,,0.00,Wunderground v.1.13,2013-06-01 20:20:00,
2013-06-01 16:30:00,84.5,68.1,29.85,WNW,289,1.0,1.0,58,0.00,,,0.00,Wunderground v.1.13,2013-06-01 20:30:00,
2013-06-01 16:40:00,84.5,68.6,29.84,WNW,289,1.0,1.0,59,0.00,,,0.00,Wunderground v.1.13,2013-06-01 20:40:00,
2013-06-01 16:50:00,84.4,70.0,29.84,WNW,289,1.0,1.0,62,0.00,,,0.00,Wunderground v.1.13,2013-06-01 20:50:00,
2013-06-01 17:00:00,84.3,68.4,29.84,WNW,289,0.0,0.0,59,0.00,,,0.00,Wunderground v.1.13,2013-06-01 21:00:00,
2013-06-01 17:10:00,84.4,69.5,29.84,WNW,289,1.0,1.0,61,0.00,,,0.00,Wunderground v.1.13,2013-06-01 21:10:00,
2013-06-01 17:20:00,84.4,70.4,29.84,WNW,289,0.0,0.0,63,0.00,,,0.00,Wunderground v.1.13,2013-06-01 21:20:00,
2013-06-01 17:30:00,84.5,71.4,29.84,WNW,288,1.0,2.0,65,0.00,,,0.00,Wunderground v.1.13,2013-06-01 21:30:00,
2013-06-01 17:40:00,84.4,70.0,29.84,WNW,288,1.0,1.0,62,0.00,,,0.00,Wunderground v.1.13,2013-06-01 21:40:00,
2013-06-01 17:50:00,84.4,68.5,29.83,WNW,288,1.0,1.0,59,0.00,,,0.00,Wunderground v.1.13,2013-06-01 21:50:00,
2013-06-01 18:00:00,84.3,70.3,29.83,WNW,288,0.0,0.0,63,0.00,,,0.00,Wunderground v.1.13,2013-06-01 22:00:00,
2013-06-01 18:10:00,84.1,70.1,29.83,WNW,290,0.0,0.0,63,0.00,,,0.00,Wunderground v.1.13,2013-06-01 22:10:00,
2013-06-01 18:20:00,83.9,70.9,29.82,WNW,290,0.0,0.0,65,0.00,,,0.00,Wunderground v.1.13,2013-06-01 22:20:00,
2013-06-01 18:30:00,83.5,70.0,29.82,WNW,290,0.0,0.0,64,0.00,,,0.00,Wunderground v.1.13,2013-06-01 22:30:00,
2013-06-01 18:40:00,83.2,69.8,29.83,WNW,290,0.0,0.0,64,0.00,,,0.00,Wunderground v.1.13,2013-06-01 22:40:00,
2013-06-01 18:50:00,83.1,70.1,29.82,WNW,290,0.0,0.0,65,0.00,,,0.00,Wunderground v.1.13,2013-06-01 22:50:00,
2013-06-01 19:00:00,83.0,69.6,29.82,WNW,290,0.0,0.0,64,0.00,,,0.00,Wunderground v.1.13,2013-06-01 23:00:00,
2013-06-01 19:10:00,82.8,68.9,29.82,WNW,290,0.0,0.0,63,0.00,,,0.00,Wunderground v.1.13,2013-06-01 23:10:00,
2013-06-01 19:20:00,82.7,69.7,29.81,WNW,290,0.0,0.0,65,0.00,,,0.00,Wunderground v.1.13,2013-06-01 23:20:00,
2013-06-01 19:30:00,82.7,69.7,29.81,WNW,290,0.0,0.0,65,0.00,,,0.00,Wunderground v.1.13,2013-06-01 23:30:00,
2013-06-01 19:40:00,82.5,70.0,29.81,WNW,290,0.0,0.0,66,0.00,,,0.00,Wunderground v.1.13,2013-06-01 23:40:00,
2013-06-01 19:50:00,82.0,70.4,29.81,WNW,290,0.0,0.0,68,0.00,,,0.00,Wunderground v.1.13,2013-06-01 23:50:00,
2013-06-01 20:00:00,81.5,70.3,29.81,WNW,290,0.0,0.0,69,0.00,,,0.00,Wunderground v.1.13,2013-06-02 00:00:00,
2013-06-01 20:10:00,80.9,70.6,29.80,WNW,290,0.0,0.0,71,0.00,,,0.00,Wunderground v.1.13,2013-06-02 00:10:00,
2013-06-01 20:20:00,80.2,71.6,29.80,WNW,290,0.0,0.0,75,0.00,,,0.00,Wunderground v.1.13,2013-06-02 00:20:00,
2013-06-01 20:30:00,79.7,70.7,29.81,WNW,290,0.0,0.0,74,0.00,,,0.00,Wunderground v.1.13,2013-06-02 00:30:00,
2013-06-01 20:40:00,79.2,70.2,29.81,WNW,290,0.0,0.0,74,0.00,,,0.00,Wunderground v.1.13,2013-06-02 00:40:00,
2013-06-01 20:50:00,78.5,70.3,29.81,North,355,0.0,0.0,76,0.00,,,0.00,Wunderground v.1.13,2013-06-02 00:50:00,
2013-06-01 21:00:00,78.3,69.3,29.81,North,355,0.0,0.0,74,0.00,,,0.00,Wunderground v.1.13,2013-06-02 01:00:00,
2013-06-01 21:10:00,77.7,70.3,29.80,North,355,0.0,0.0,78,0.00,,,0.00,Wunderground v.1.13,2013-06-02 01:10:00,
2013-06-01 21:20:00,77.1,70.1,29.80,North,355,0.0,0.0,79,0.00,,,0.00,Wunderground v.1.13,2013-06-02 01:20:00,
2013-06-01 21:30:00,76.7,69.3,29.81,North,355,0.0,0.0,78,0.00,,,0.00,Wunderground v.1.13,2013-06-02 01:30:00,
2013-06-01 21:40:00,76.4,69.4,29.81,North,355,0.0,0.0,79,0.00,,,0.00,Wunderground v.1.13,2013-06-02 01:40:00,
2013-06-01 21:50:00,76.0,68.3,29.81,North,355,0.0,0.0,77,0.00,,,0.00,Wunderground v.1.13,2013-06-02 01:50:00,
2013-06-01 22:00:00,76.4,67.5,29.81,North,355,0.0,0.0,74,0.00,,,0.00,Wunderground v.1.13,2013-06-02 02:00:00,
2013-06-01 22:10:00,77.1,66.6,29.81,North,360,0.0,2.0,70,0.00,,,0.00,Wunderground v.1.13,2013-06-02 02:10:00,
2013-06-01 22:20:00,77.5,66.1,29.80,North,360,0.0,0.0,68,0.00,,,0.00,Wunderground v.1.13,2013-06-02 02:20:00,
2013-06-01 22:30:00,77.5,65.7,29.80,North,360,0.0,0.0,67,0.00,,,0.00,Wunderground v.1.13,2013-06-02 02:30:00,
2013-06-01 22:40:00,77.7,65.4,29.80,North,360,0.0,0.0,66,0.00,,,0.00,Wunderground v.1.13,2013-06-02 02:40:00,
2013-06-01 22:50:00,77.5,64.8,29.80,ESE,115,1.0,1.0,65,0.00,,,0.00,Wunderground v.1.13,2013-06-02 02:50:00,
2013-06-01 23:00:00,77.6,64.5,29.80,ESE,117,1.0,1.0,64,0.00,,,0.00,Wunderground v.1.13,2013-06-02 03:00:00,
2013-06-01 23:10:00,77.7,64.5,29.79,ESE,123,1.0,1.0,64,0.00,,,0.00,Wunderground v.1.13,2013-06-02 03:10:00,
2013-06-01 23:20:00,77.8,64.2,29.79,ESE,123,1.0,1.0,63,0.00,,,0.00,Wunderground v.1.13,2013-06-02 03:20:00,
2013-06-01 23:30:00,77.9,63.8,29.79,SE,131,1.0,2.0,62,0.00,,,0.00,Wunderground v.1.13,2013-06-02 03:30:00,
2013-06-01 23:40:00,78.0,63.5,29.79,SE,131,1.0,2.0,61,0.00,,,0.00,Wunderground v.1.13,2013-06-02 03:40:00,
2013-06-01 23:50:00,78.2,63.6,29.78,SE,131,1.0,1.0,61,0.00,,,0.00,Wunderground v.1.13,2013-06-02 03:50:00,